AirNav   Air Wisconsin Up To $57,000 Bonus
 
 1695 users online  

NC12 Lee Creek Airport
Aurora, North Carolina, USA

GOING TO AURORA?


FAA INFORMATION EFFECTIVE 26 JANUARY 2023

Location

FAA Identifier: NC12
Lat/Long: 35-23-22.6020N 076-47-04.7620W
35-23.376700N 076-47.079367W
35.3896117,-76.7846561
(estimated)
Elevation: 3 ft. / 1 m (estimated)
Variation: 08W (1985)
From city: 5 miles N of AURORA, NC
Time zone: UTC -5 (UTC -4 during Daylight Saving Time)
Zip code: 27806

Airport Operations

Airport use: Private use. Permission required prior to landing
Activation date: 07/1967
Control tower: no
ARTCC: WASHINGTON CENTER
FSS: RALEIGH FLIGHT SERVICE STATION
Attendance: UNATNDD
Wind indicator: yes
Segmented circle: no
Lights: FOR RY LGTS CALL 252-322-8215.

Airport Communications

WX AWOS-3 at OCW (17 nm NW): 120.175 (252-975-6133)

Nearby radio navigation aids

VOR radial/distance  VOR name  Freq  Var
EWNr042/22.9NEW BERN VOR/DME113.6008W
ISOr093/37.9KINSTON VORTAC117.5005W

 
NDB name  Hdg/Dist  Freq  Var  ID
CHOCOWINITY123/17.338808WRNW .-. -. .--
ALWOOD133/34.423009WAQE .- --.- .

Airport Services

Airframe service: NONE
Powerplant service: NONE

Runway Information

Runway 8/26

Dimensions: 5070 x 75 ft. / 1545 x 23 m
Surface: asphalt
Runway edge lights: low intensity
RUNWAY 8  RUNWAY 26
Traffic pattern: leftleft
Displaced threshold: 800 ft.no

Airport Ownership and Management from official FAA records

Ownership: Privately-owned
Owner: PCS PHOSPHATE
PO BOX 48
AURORA, NC 27806
Phone 252-322-4111
Manager: HOLLI WILLIAMSON
1530 NC HWY 306 SOUTH
AURORA, NC 27806
Phone 252-322-8148

Additional Remarks

BLDG, TREES AND EQUIPMENT SOUTH SIDE OF RY.
FOR CD CTC WASHINGTON ARTCC AT 703-771-3587.

Instrument Procedures

There are no published instrument procedures at NC12.

Some nearby airports with instrument procedures:

KOCW - Washington-Warren Airport (17 nm NW)
KEWN - Coastal Carolina Regional Airport (23 nm SW)
KPMZ - Plymouth Municipal Airport (25 nm N)
KNKT - Cherry Point Marine Corps Air Station (Cunningham Field) Airport (30 nm S)
KPGV - Pitt-Greenville Airport (33 nm NW)
 
Loc | Ops | Rwys | IFR | FBO | Links
Com | Nav | Svcs | Stats | Notes
Area around NC12 (Lee Creek Airport)
 
Road maps at: MapQuest Bing Google
 
Aerial photo
No photo
 
Sectional chart

 
Airport distance calculator
Flying to Lee Creek Airport? Find the distance to fly.

From to NC12

Sunrise and sunset
Times for 31-Jan-2023
 Local
(UTC-5)
 Zulu
(UTC)
Morning civil twilight06:4211:42
Sunrise07:0812:08
Sunset17:3322:33
Evening civil twilight18:0023:00

Current date and time
Zulu (UTC)  31-Jan-2023 22:39:37
Local (UTC-5)  31-Jan-2023 17:39:37
 
METAR
KOCW 
17nm NW 
312215Z AUTO 00000KT 10SM OVC005 13/12 A3013 RMK AO2 T01290117
KEWN 
23nm SW 
312154Z 00000KT 10SM OVC006 14/13 A3012 RMK AO2 SLP200 T01390128
KNBT 
28nm SE 
312150Z AUTO 03003KT 10SM SCT004 OVC015 15/12 A3011 RMK AO2 T01500122
KNKT 
31nm S 
312156Z 35003KT 10SM BKN004 OVC011 14/13 A3012 RMK AO2 SLP197 T01440133
KPGV 
33nm NW 
312215Z AUTO 00000KT 7SM BKN007 OVC075 13/13 A3011 RMK AO2
TAF
KEWN 
23nm SW 
311725Z 3118/0118 VRB03KT P6SM VCSH OVC006 FM312100 VRB03KT P6SM VCSH OVC010 FM010200 00000KT 5SM BR OVC004 FM011000 02007KT 3SM -RA OVC004
NOTAMs
Click for the latest NOTAMs
NOTAMs are issued by the DoD/FAA and will open in a separate window not controlled by AirNav.

 

 
 

Would you like to see your business listed on this page?

 If your business provides an interesting product or service to pilots, flight crews, aircraft, or users of the Lee Creek Airport, you should consider listing it here.  To start the listing process, click on the button below
 
Add a business
 

Other Pages about Lee Creek Airport

Update a link
 
Copyright © AirNav, LLC. All rights reserved. Privacy Policy  Contact